Zurück zum Katalog

STARLINK-37577

AktivKommunikationVLEO
NORAD 69452·PAYLOAD·🇺🇸 United States

Gestartet Jun 8, 2026 von Cape Canaveral Space Force Station

Loading…

Nächste Überflüge (nächste 24 Stunden)

TLE

AktuellSource: CelesTrak SupGP

Epoche: Sep 15, 2026, 02:51 UTC

1 69452C 26127K   26258.11923611 -.00058012  00000+0 -17139-2 0  2589
2 69452  53.1581 191.1828 0001349  90.5182 201.3263 15.34420708    15

Verfolge STARLINK-37577 in Echtzeit mit AllMySat

Download on the App Store